Regional Weather Roundup
Issued by NWS Boston, MA

Current Version | Previous Version | Text Only | Print | Product List | Glossary Off
Versions: 1 2 3 4 5 6 7 8 9 10 11 12 13 14 15 16 17 18 19 20 21 22 23 24 25 26 27 28 29 30 31 32 33 34 35 36 37 38 39 40 41 42 43 44 45 46 47 48 49 50
458 ASUS41 KBOX 231410 RWRBOX REGIONAL WEATHER ROUNDUP NATIONAL WEATHER SERVICE TAUNTON MA 1000 AM EDT MON OCT 23 2017 NOTE: "FAIR" INDICATES FEW OR NO CLOUDS BELOW 12,000 FEET WITH NO SIGNIFICANT WEATHER AND/OR OBSTRUCTIONS TO VISIBILITY. MAZALL-231500- EASTERN MASSACHUSETTS CITY SKY/WX TMP DP RH WIND PRES REMARKS BOSTON FOG 55 55 100 E5 30.37F VSB 1/8 BEVERLY CLOUDY 56 53 90 SE5 30.37F FOG LAWRENCE CLOUDY 57 53 86 CALM 30.39F FOG BEDFORD CLOUDY 56 53 90 CALM 30.36F FOG BLUE HILL N/A 55 54 96 VRB5 30.36F NORWOOD FOG 58 56 93 CALM 30.37F VSB 1/2 MARSHFIELD FOG 57 57 100 SE6 30.37F VSB<1/4 PLYMOUTH MOSUNNY 60 57 89 NE3 30.37F TAUNTON CLOUDY 57 56 96 CALM 30.37F FOG NEW BEDFORD SUNNY 62 59 90 SE6 30.36F $$ MAZALL-231500- CAPE COD AND THE ISLANDS CITY SKY/WX TMP DP RH WIND PRES REMARKS FALMOUTH MOSUNNY 63 63 100 SE6 30.38F HYANNIS MOSUNNY 65 62 90 S3 30.37F CHATHAM SUNNY 64 61 90 S5 30.39F PROVINCETOWN CLOUDY 60 60 100 SE6 30.38F NANTUCKET SUNNY 63 62 97 SE10 30.38F MARTHAS VNYRD SUNNY 65 62 90 SE9 30.37F $$ MAZALL-231500- CENTRAL AND WESTERN MASSACHUSETTS CITY SKY/WX TMP DP RH WIND PRES REMARKS WORCESTER FOG 53 52 96 S6 30.36F VSB<1/4 FITCHBURG CLOUDY 58 54 86 SE5 30.37F ORANGE CLOUDY 51 50 96 E3 30.35F SPRINGFIELD PTSUNNY 55 53 95 CALM 30.33F WESTFIELD CLOUDY 52 51 97 CALM 30.34F NORTH ADAMS CLOUDY 54 42 64 E10 30.30F PITTSFIELD CLOUDY 52 45 77 CALM 30.30F $$ RIZALL-231500- RHODE ISLAND CITY SKY/WX TMP DP RH WIND PRES REMARKS PROVIDENCE FOG 57 57 100 CALM 30.38S VSB 1/4 NEWPORT PTSUNNY 62 62 100 SE6 30.36F BLOCK ISLAND MOSUNNY 66 63 90 S9 30.35F SMITHFIELD FOG 55 55 100 CALM 30.37S VSB 1/4 WESTERLY CLOUDY 61 60 97 NE3 30.35F FOG $$ CTZALL-231500- CONNECTICUT CITY SKY/WX TMP DP RH WIND PRES REMARKS BRADLEY INTL CLOUDY 56 52 86 CALM 30.34F HARTFORD MOSUNNY 58 55 90 CALM 30.33F BRIDGEPORT CLOUDY 65 61 87 NE6 30.32F DANBURY CLOUDY 64 60 87 SE7 30.32F GROTON PTSUNNY 63 61 93 E8 30.34F FOG NEW HAVEN PTSUNNY 65 62 90 E7 30.33S CHESTER CLOUDY 63 63 100 CALM 30.34F FOG MERIDEN PTSUNNY 61 56 83 CALM 30.32F WILLIMANTIC CLOUDY 55 55 100 CALM 30.36F OXFORD CLOUDY 61 60 97 S6 30.33F FOG $$ MEZ002-015-021-024-NHZ003-005-008-011-012-014-VTZ005-008-231500- NORTHERN NEW ENGLAND CITY SKY/WX TMP DP RH WIND PRES REMARKS PORTLAND ME PTSUNNY 53 48 83 SW3 30.38F BANGOR ME FOG 53 52 96 S7 30.37S VSB 3/4 CONCORD NH CLOUDY 55 50 83 S7 30.37F MANCHESTER NH CLOUDY 55 51 86 VRB5 30.36F NASHUA NH CLOUDY 55 53 93 SE3 30.38F PORTSMOUTH NH CLOUDY 56 49 80 S3 30.37F JAFFREY NH CLOUDY 54 54 100 S5 30.36F KEENE NH CLOUDY 53 51 93 CALM 30.36F BURLINGTON VT PTSUNNY 63 47 55 S20G29 30.23F MT. WASHINGTON MOSUNNY 48 28 46 SW37G48 N/A $$ NYZ052-076-231500- EASTERN NEW YORK CITY SKY/WX TMP DP RH WIND PRES REMARKS ALBANY PTSUNNY 62 54 74 S10 30.27F NEW YORK CITY PTSUNNY 68 62 81 S7 30.28F $$ ANZALL-231500- MARINE OBSERVATIONS STATION/POSITION TIME TEMP WIND PRES VSBY WAVE AIR SEA DIR/SP/G HT/PER (UTC) (F) (DEG/KT/KT) (MB) (MI) (FT/S) BOSTON BUOY 1250 55 58 160/ 4/ 4 1028.8 1/ 5 BUZZARDS BAY 1300 62 110/ 7/ 7 1028.9S NANTUCKET SOUND 1350 62 62 130/ 6/ 8 1028.5F 1 MASS BAY-STELLWA 1304 55 59 180/ 6/ 8 1028.6R 2/ 8 ISLE OF SHOALS 1300 54 210/ 4/ 5 1029.0R S OF BLOCK IS NOT AVBL $$ ......................KEY......................... SKY/WX - SKY CONDITION/PRESENT WEATHER TMP - TEMPERATURE IN FAHRENHEIT DWPT - DEWPOINT IN FAHRENHEIT RH - RELATIVE HUMIDITY IN PERCENT WIND - DIRECTION AND SPEED IN MPH PRES - MEAN SEA LEVEL PRESSURE IN INCHES OF HG WCI - WIND CHILL INDEX VSB - VISIBILITY IN MILES HX - HEAT INDEX TC - TEMPERATURE IN CELSIUS VRB - VARIABLE WIND DIRECTION N/A - NOT AVAILABLE

USA.gov is the U.S. government's official web portal to all federal, state and local government web resources and services.